Location: Berville
(49.1893°N, 2.0748°E)
Time: 06:45:23
(UTC+00:00)

Cosmos 1553 Rocket - Pass Details

Date: 08 February 2023
Orbit: 942 x 1007 km, 82.9° (Epoch: 21 March)

Event Time Altitude Azimuth Distance (km) Brightness Sun altitude
Rises 18:13:44 0° 187° (S) 3,603 7.2 -12.5°
Reaches altitude 10° 18:16:12 10° 188° (S) 2,668 6.5 -12.9°
Maximum altitude 18:22:18 89° 274° (W) 967 4.0 -13.9°
Drops below altitude 10° 18:28:34 10° 9° (N) 2,727 6.2 -14.9°
Sets 18:31:06 0° 10° (N) 3,688 6.9 -15.3°
